FW1003 Weather Reports


Display with metric or nautical units.
time (UTC)temp
F
wind
direction
speed
MPH
gust
MPH
rain 1hr
in
rain 24hr
in
rain mn
in
humidity
%
barometer
mb
20260906010028 77 331 0.0 0.0 0.00 0.00 0.00 74 1013.4
20260906004525 77 331 0.0 0.0 0.00 0.00 0.00 74 1013.3
20260906003025 77 331 0.0 0.0 0.00 0.00 0.00 74 1013.5
20260906001526 77 331 0.0 0.0 0.00 0.00 0.00 74 1013.5
20260906000023 76 331 0.0 2.0 0.00 0.00 0.00 73 1013.6
20260905234522 77 331 1.0 3.0 0.00 0.00 0.00 73 1013.6
20260905233022 77 331 0.0 2.0 0.00 0.00 0.00 73 1013.6
20260905231522 77 331 0.0 0.0 0.00 0.00 0.00 73 1013.7
20260905230021 77 331 0.0 0.0 0.00 0.00 0.00 72 1013.6
20260905224521 77 331 0.0 0.0 0.00 0.00 0.00 73 1013.5
20260905223021 77 331 0.0 0.0 0.00 0.00 0.00 72 1013.5
20260905221530 77 331 0.0 0.0 0.00 0.00 0.00 71 1013.7
20260905220117 78 331 0.0 0.0 0.00 0.00 0.00 71 1013.9
20260905214512 78 331 0.0 1.0 0.00 0.00 0.00 71 1014.0
20260905213009 78 331 0.0 2.0 0.00 0.00 0.00 72 1014.1
20260905211507 78 331 0.0 2.0 0.00 0.00 0.00 71 1014.3
20260905210009 78 331 0.0 2.0 0.00 0.00 0.00 71 1014.2
20260905204504 79 331 0.0 2.0 0.00 0.00 0.00 70 1014.3
20260905203004 79 331 0.0 2.0 0.00 0.00 0.00 70 1014.3
20260905201506 79 331 0.0 0.0 0.00 0.00 0.00 70 1014.3
20260905200004 80 331 0.0 0.0 0.00 0.00 0.00 69 1014.3
20260905194505 80 331 0.0 0.0 0.00 0.00 0.00 68 1014.3
20260905193008 81 331 0.0 0.0 0.00 0.00 0.00 68 1014.2
20260905191501 81 331 0.0 0.0 0.00 0.00 0.00 69 1014.3
20260905190002 82 331 0.0 0.0 0.00 0.00 0.00 68 1014.3
20260905184620 82 331 0.0 0.0 0.00 0.00 0.00 68 1014.4
20260905184501 82 331 0.0 0.0 0.00 0.00 0.00 68 1014.4
20260905183100 82 331 0.0 0.0 0.00 0.00 0.00 68 1014.5
20260905181559 82 331 0.0 0.0 0.00 0.00 0.00 67 1014.4
20260905181500 82 331 0.0 0.0 0.00 0.00 0.00 67 1014.3
20260905180058 82 331 0.0 0.0 0.00 0.00 0.00 67 1014.3
20260905174600 83 331 0.0 0.0 0.00 0.00 0.00 66 1014.3
20260905173058 83 331 0.0 0.0 0.00 0.00 0.00 65 1014.2
20260905171555 83 331 0.0 0.0 0.00 0.00 0.00 64 1014.1
20260905170059 84 331 0.0 0.0 0.00 0.00 0.00 64 1014.0
20260905164554 84 331 0.0 2.0 0.00 0.00 0.00 63 1013.7
20260905163054 84 331 0.0 2.0 0.00 0.00 0.00 63 1013.5
20260905161555 85 322 0.0 3.0 0.00 0.00 0.00 62 1013.4
20260905160052 85 309 0.0 1.0 0.00 0.00 0.00 62 1013.4
20260905154554 86 309 0.0 4.0 0.00 0.00 0.00 61 1013.4
20260905153051 86 37 0.0 2.0 0.00 0.00 0.00 60 1013.3
20260905151551 87 23 1.0 3.0 0.00 0.00 0.00 60 1013.3
20260905150050 87 310 0.0 4.0 0.00 0.00 0.00 60 1013.3
20260905144550 88 294 1.0 5.0 0.00 0.00 0.00 59 1013.2
20260905143050 88 325 2.0 6.0 0.00 0.00 0.00 58 1013.3
20260905141554 89 98 1.0 5.0 0.00 0.00 0.00 57 1013.2
20260905140050 90 321 1.0 6.0 0.00 0.00 0.00 57 1013.1
20260905134550 90 350 4.0 6.0 0.00 0.00 0.00 55 1013.1
20260905133047 91 61 2.0 6.0 0.00 0.00 0.00 55 1013.3
20260905131559 91 90 1.0 7.0 0.00 0.00 0.00 55 1013.2
20260905130045 90 302 3.0 9.0 0.00 0.00 0.00 55 1013.3
20260905124549 92 173 1.0 4.0 0.00 0.00 0.00 53 1013.3
20260905123054 92 217 1.0 6.0 0.00 0.00 0.00 54 1013.4
20260905121545 92 78 2.0 6.0 0.00 0.00 0.00 52 1013.4
20260905120045 92 64 1.0 5.0 0.00 0.00 0.00 53 1013.5
20260905114545 92 311 2.0 8.0 0.00 0.00 0.00 52 1013.6
20260905113043 92 339 2.0 5.0 0.00 0.00 0.00 52 1013.6
20260905111551 92 139 2.0 7.0 0.00 0.00 0.00 52 1013.7
20260905110040 93 9 2.0 6.0 0.00 0.00 0.00 51 1013.7
20260905104537 93 51 2.0 5.0 0.00 0.00 0.00 53 1013.7
20260905103036 93 340 2.0 9.0 0.00 0.00 0.00 51 1013.6
20260905101540 93 345 2.0 6.0 0.00 0.00 0.00 51 1013.7
20260905100033 93 342 1.0 8.0 0.00 0.00 0.00 51 1013.8
20260905094529 94 340 1.0 6.0 0.00 0.00 0.00 51 1013.8
20260905093026 93 126 1.0 9.0 0.00 0.00 0.00 52 1013.8
20260905091523 93 136 2.0 5.0 0.00 0.00 0.00 52 1013.7
20260905090018 92 90 1.0 5.0 0.00 0.00 0.00 53 1013.9
20260905084544 91 79 2.0 8.0 0.00 0.00 0.00 54 1013.7
20260905083019 91 135 3.0 9.0 0.00 0.00 0.00 55 1013.6
20260905081509 91 318 1.0 5.0 0.00 0.00 0.00 54 1013.7
20260905080005 90 165 3.0 8.0 0.00 0.00 0.00 56 1013.5
20260905074502 89 121 2.0 9.0 0.00 0.00 0.00 57 1013.5
20260905073005 90 65 2.0 7.0 0.00 0.00 0.00 57 1013.8
20260905071602 89 205 2.0 8.0 0.00 0.00 0.00 59 1014.0
20260905064551 87 178 2.0 6.0 0.00 0.00 0.00 62 1013.8
20260905063051 86 169 2.0 6.0 0.00 0.00 0.00 62 1013.9
20260905061549 86 130 1.0 6.0 0.00 0.00 0.00 63 1013.6
20260905060045 87 112 2.0 7.0 0.00 0.00 0.00 63 1013.7
20260905054541 86 130 1.0 4.0 0.00 0.00 0.00 64 1013.6
20260905053037 85 122 1.0 4.0 0.00 0.00 0.00 67 1013.6
20260905051537 83 112 2.0 4.0 0.00 0.00 0.00 70 1013.6
20260905050030 82 63 0.0 0.0 0.00 0.00 0.00 74 1013.5
20260905044525 80 53 0.0 0.0 0.00 0.00 0.00 77 1013.3
20260905043020 77 52 0.0 0.0 0.00 0.00 0.00 77 1013.3
20260905041520 77 52 0.0 0.0 0.00 0.00 0.00 77 1013.1
20260905040016 76 52 0.0 0.0 0.00 0.00 0.00 77 1013.0
20260905034522 75 52 0.0 0.0 0.00 0.00 0.00 75 1012.9
20260905033010 75 52 0.0 0.0 0.00 0.00 0.00 75 1012.8
20260905031508 75 52 0.0 0.0 0.00 0.00 0.00 75 1012.8
20260905030021 75 52 0.0 0.0 0.00 0.00 0.00 75 1012.7
20260905024507 75 52 0.0 0.0 0.00 0.00 0.00 75 1012.7
20260905023019 75 52 0.0 0.0 0.00 0.00 0.00 74 1012.6
20260905021510 75 52 0.0 0.0 0.00 0.00 0.00 73 1012.6
20260905020006 76 52 0.0 0.0 0.00 0.00 0.00 74 1012.4
20260905014508 76 53 0.0 0.0 0.00 0.00 0.00 74 1012.4
20260905013004 76 52 0.0 0.0 0.00 0.00 0.00 75 1012.4
20260905011504 76 52 0.0 0.0 0.00 0.00 0.00 74 1012.5